{"data":{"norad_id":64310,"epoch":"2026-05-24T23:46:12.033984Z","epoch_age_seconds":85740,"freshness":"FRESH","line1":"1 64310U 25123V   26144.99041706  .00032155  00000+0  26939-2 0  9996","line2":"2 64310  70.0023   2.2355 0002139 287.2981  72.7944 14.98279810 53041","mean_motion":14.9827981,"eccentricity":0.0002139,"inclination_deg":70.0023,"raan_deg":2.2355,"arg_perigee_deg":287.2981,"mean_anomaly_deg":72.7944,"bstar":0.0026939,"rev_number":5304,"period_min":96.110218557907,"perigee_km":570.72442425252,"apogee_km":573.69778317129,"semimajor_km":6950.3481037119,"source":"CELESTRAK","updated_at":"2026-05-25T13:38:20.369945Z"}}